Content
SEND FEEDBACK

Daily
Averages
Monthly
Summary
Turkmenistan

ASHGABAT, TURKMENISTAN


Home > Asia > Turkmenistan
Elevation: 236 meters     Latitude: 37 58N     Longitude: 058 20E

WEATHER
 
SELECT A DAY
Number of Records: 177,024;   Date Range: 3/15/97 - 7/7/14
 
SHARE

PRINT THIS DATA

[ ← Previous Day ]
WEATHER ALMANAC - 22 DECEMBER, 2013
[ Next Day → ]
[ °F ]   °C
Weather ElementAverageHighLow
Temperature0.4 °C7 °C (4:00 pm)-4.4 °C (8:00 am)
Dewpoint-3.9 °C-2 °C (2:00 pm)-6.7 °C (8:00 am)
Humidity71.9 %86 % (1:00 am)37 % (5:00 pm)
Barometer1032.8 hPa1036.9 hPa (2:00 am)1030.1 hPa (2:00 pm)
Wind Speed11.4 km/h18 km/h (10:00 am)
Weather ElementAverage
Visibility9.8 km
Wind DirectionESE (124.2 °)

Weather ElementTotal
Precipitation---
Heating Degree Days17.1 (Base 18.3)
Averaged from 31 records on 22 December, 2013
WEATHER CONDITIONS BREAKOUT
WIND DIRECTION BREAKOUT
WEATHER BY HOUR - 22 DECEMBER, 2013
[ °F ]   °C
Local TimeTemperatureDewpointHumidityBarometerVisibilityWind DirectionWind SpeedGust SpeedPrecipitationEventsConditions
1:00 AM-1 °C-3 °C86 %1035.2 hPa10 kmEast (80°)7.2 km/hMostly Cloudy
2:00 AM-1.7 °C-4.4 °C76 %1036.9 hPa9.7 kmESE (120°)7.2 km/hScattered Clouds
2:00 AM-2 °C-4 °C86 %1034.2 hPa10 kmESE (120°)7.2 km/hPartly Cloudy
3:00 AM-2 °C-4 °C86 %1034.2 hPa10 kmEast (100°)10.8 km/hPartly Cloudy
4:00 AM-2 °C-4 °C86 %1034.2 hPa10 kmESE (110°)10.8 km/hClear
5:00 AM-3.3 °C-5.6 °C78 %1035.9 hPa9.7 kmESE (110°)10.8 km/h
5:00 AM-2 °C-5 °C80 %1033.2 hPa10 kmESE (110°)10.8 km/hClear
6:00 AM-3 °C-5 °C86 %1033.2 hPa10 kmESE (110°)10.8 km/hClear
7:00 AM-3 °C-5 °C86 %1033.2 hPa10 kmESE (110°)14.3 km/hClear
8:00 AM-4.4 °C-6.7 °C81 %1035.9 hPa9.7 kmESE (110°)10.8 km/h
8:00 AM-3 °C-5 °C86 %1034.2 hPa10 kmESE (110°)10.8 km/hClear
9:00 AM-3 °C-5 °C86 %1034.2 hPa10 kmESE (110°)10.8 km/hClear
10:00 AM-2 °C-5 °C80 %1034.2 hPa10 kmESE (120°)18 km/hClear
11:00 AM-1.1 °C-5 °C67 %1036.6 hPa9.7 kmEast (100°)14.3 km/hScattered Clouds
11:00 AM-1 °C-4 °C80 %1034.2 hPa10 kmEast (100°)14.3 km/hPartly Cloudy
12:00 PM1 °C-3 °C75 %1033.2 hPa10 kmESE (120°)14.3 km/hPartly Cloudy
1:00 PM3 °C-3 °C65 %1031.2 hPa10 kmESE (120°)18 km/hPartly Cloudy
2:00 PM4.4 °C-2.2 °C50 %1032.5 hPa9.7 kmESE (120°)18 km/hClear
2:00 PM5 °C-2 °C61 %1030.1 hPa10 kmESE (120°)14.3 km/hPartly Cloudy
3:00 PM6 °C-3 °C53 %1030.1 hPa10 kmEast (100°)14.3 km/hClear
4:00 PM7 °C-3 °C49 %1030.1 hPa10 kmESE (110°)14.3 km/hClear
5:00 PM6.1 °C-3.3 °C37 %1031.8 hPa9.7 kmEast (100°)10.8 km/h
5:00 PM6 °C-3 °C53 %1030.1 hPa10 kmEast (100°)10.8 km/hClear
6:00 PM5 °C-3 °C57 %1031.2 hPa10 kmENE (60°)7.2 km/hClear
7:00 PM3 °C-3 °C65 %1032.2 hPa10 kmNE (40°)7.2 km/hPartly Cloudy
8:00 PM1.1 °C-3.9 °C58 %1033.2 hPa9.7 kmSSE (160°)3.5 km/h
8:00 PM1 °C-3 °C75 %1031.2 hPa10 kmSSE (160°)7.2 km/hClear
9:00 PM1 °C-3 °C75 %1030.1 hPa10 kmESE (110°)7.2 km/hClear
10:00 PM-1 °C-4 °C80 %1030.1 hPa10 kmWest (270°)10.8 km/hScattered Clouds
11:00 PM0 °C-3.9 °C65 %1032.5 hPa9.7 kmWest (270°)14.3 km/hClear
11:00 PM0 °C-3 °C80 %1031.2 hPa10 kmWest (270°)14.3 km/hScattered Clouds
Hourly data recorded from UTAA, located 0 kilometers away from Ashgabat, Turkmenistan







STORIES FROM OUR PARTNERS